This is the latest recevied weather packets stored in our database for station/object OH2TH. If no packets are shown the sender has not sent any weather packets the latest 10 day(s).
| Time | Temp. | Humidity | Pressure | Rain* | Wind** | Luminosity | Snow |
|---|---|---|---|---|---|---|---|
| 1777634104 | 21.11° C | 31% | 102 hPa | 18.03 mm | - | - | - |
| 1777633204 | 20° C | 34% | 102 hPa | 18.03 mm | - | - | - |
| 1777632304 | 20° C | 34% | 102 hPa | 18.03 mm | - | - | - |
| 1777631404 | 19.44° C | 35% | 102 hPa | 18.03 mm | - | - | - |
| 1777630504 | 19.44° C | 34% | 102 hPa | 18.03 mm | - | - | - |
| 1777629604 | 19.44° C | 37% | 102 hPa | 18.03 mm | - | - | - |
| 1777628703 | 19.44° C | 37% | 102 hPa | 21.08 mm | - | - | - |
| 1777627803 | 18.33° C | 38% | 102 hPa | 21.08 mm | - | - | - |
| 1777626903 | 18.33° C | 38% | 102 hPa | 21.08 mm | - | - | - |
| 1777626003 | 18.33° C | 39% | 102 hPa | 21.08 mm | - | - | - |
| 1777625103 | 17.78° C | 40% | 102 hPa | 21.08 mm | - | - | - |
| 1777624203 | 17.78° C | 40% | 102 hPa | 21.08 mm | - | - | - |
| 1777623302 | 17.78° C | 41% | 102 hPa | 21.08 mm | - | - | - |
| 1777622402 | 16.67° C | 42% | 102 hPa | 21.08 mm | - | - | - |
| 1777621502 | 16.67° C | 47% | 102 hPa | 21.08 mm | - | - | - |
| 1777620602 | 16.67° C | 47% | 102 hPa | 21.08 mm | - | - | - |
| 1777619702 | 16.11° C | 48% | 102 hPa | 18.03 mm | - | - | - |
| 1777618802 | 15° C | 49% | 102 hPa | 18.03 mm | - | - | - |
| 1777617902 | 14.44° C | 52% | 102 hPa | 18.03 mm | - | - | - |
| 1777617001 | 14.44° C | 56% | 102 hPa | 18.03 mm | - | - | - |
| 1777616101 | 12.22° C | 61% | 102 hPa | 18.03 mm | - | - | - |
| 1777615201 | 11.11° C | 64% | 102 hPa | 18.03 mm | - | - | - |
| 1777614301 | 10° C | 71% | 102 hPa | 18.03 mm | - | - | - |
| 1777613401 | 8.33° C | 74% | 102 hPa | 18.03 mm | - | - | - |
| 1777611605 | 7.22° C | 81% | 102 hPa | 18.03 mm | - | - | - |
* Rain latest 24 hours (hover to see other rain measurements)
** Current wind speed in m/s (hover to see current wind gust speed)